User: anonymous   Login
Location: Ariel
(45.9570°N, 122.5700°W)
Time: 19:14:19
(UTC-07:00)
Language:

XW-2B - Orbit

View from above orbital plane
View from above orbital plane
View from above satellite
View from above satellite

Ground track
Ground track

The orbit data is extracted from the following two-line orbital elements,

1 40911U 15049N   19287.77291593  .00000386  00000-0  23566-4 0  9997
2 40911  97.4714 288.2761 0014890 142.4375 304.4312 15.15904322224794
Epoch (UTC): 14 October 2019 18:32:59
Eccentricity: 0.0014890
inclination: 97.4714°
perigee height: 508 km
apogee height: 528 km
right ascension of ascending node: 288.2761°
argument of perigee: 142.4375°
revolutions per day: 15.15904322
mean anomaly at epoch: 304.4312°
orbit number at epoch: 22479

The dashed part of the orbit path shows where the satellite is in the earth's shadow,  

DLR